SL-16 DEB, 22441

Orbit data source: Space-Track

SL-16 DEB, 22441 is space debris in LEO originally from a launch on Fri, 25 Dec 1992 UTC launched from the Tyuratam Missile And Space Complex (TTMTR). Debris objects in space refer to the collection of defunct objects orbiting the Earth. Examples of debris include non-operational satellites, rocket bodies, and fragments generated from explosions, collisions, or faulty payload assembly.

Loading next visibility...
Identifier
22441, 1992-093EJ
Orbit
LEO
Country
Flag of CISCIS
Related business
Manufacturer
Unknown
Mission
Spacecraft
Bus & Motor
Unknown
Mass
Unknown
Launch date (UTC)
1992-12-25 (33 years ago)
Launch vehicle
Unknown
Launch site
Tyuratam Missile And Space Complex (TTMTR)
Object type
Payload
Rocket body
Debris
Shape & HBR
Unknown shape, 0.5 m
Radar Cross Section
Medium (>0.1 m² and <1 m²)

Expand to show TLE details & history
Last TLE update: 19 hours ago

TLE from 19 hours ago
0 SL-16 DEB
1 22441U 92093EJ  26036.79942185  .00000479  00000-0  31640-3 0  9995
2 22441  71.1960 176.8090 0081574 124.5917 351.6330 14.04800455691709
Epoch: 2026-02-05T19:11Z
TLE epoch observation values (Epoch: 2026-02-05T19:11:10.047Z)
Latitude
58.34294°
Longitude
-100.24989°
Altitude
827.984 km
Speed
7.475 km/s
True Right ascension
21h 33m 57s
True Declination
58° 11' 26"
Sunlit
Object was in daylight at epoch
Visualization orbit readout
Latitude
Unknown
Longitude
Unknown
Altitude
Unknown
Speed
Unknown
Apparent Right ascension
Unknown
Apparent Declination
Unknown
Sunlit
N/A
Visualization observer readout
Local Sidereal Time
15:52:39
Azimuth
Unknown
Elevation
Unknown
Doppler factor
Unknown
Orbital elements
Apogee altitude
934.303 km
Perigee altitude
815.967 km
Semi-major axis
7,253.272 km
Eccentricity
0.00816
Inclination
71.196°
RAAN
176.809°
Arg. of periapsis
124.5917°
True anomaly
351.49559°
Mean anomaly
351.633°
Eccentric anomaly
351.56444°
Mean motion
3.51352 °/min
Orbital period
102.46 mins
BSTAR
0.0003164
Loading maneuver chart data...
Computing Atmospheric mass density...

Documentation

Showing up to 5 results
|